BAW543Q LIPE-EGLL

Flight info

Callsign BAW543Q
Flight time N/A
Altitude 34000
Route LUPOS DCT OSBUL DCT IBNAN DCT ABESI DCT UTAVO DCT HOC DCT LUL DCT RLP DCT ROTSI DCT KOTUN DCT NINAL DCT ABNUR DCT DIMAL DCT ALESO
Aircraft A320/M-SDE3FGIJ1KRWXY/SB1

Departure

Time N/A
Airport Bologna Guglielmo Marconi Airport (LIPE)

Arrival

Time 2026-04-30 20:31
Airport London Heathrow Airport (EGLL)
Time Latitude Longitude Altitude Speed Heading
2026-04-30 20:13 51.25149 0.15741 10463 ft 355 kts 315°
2026-04-30 20:13 51.26911 0.13022 10262 ft 343 kts 315°
2026-04-30 20:13 51.28583 0.10442 10352 ft 323 kts 315°
2026-04-30 20:13 51.30153 0.08021 10332 ft 316 kts 315°
2026-04-30 20:14 51.31740 0.05535 9921 ft 317 kts 311°
2026-04-30 20:14 51.32860 0.02590 9404 ft 316 kts 286°
2026-04-30 20:14 51.33339 -0.00849 8892 ft 316 kts 277°
2026-04-30 20:14 51.33686 -0.04341 8386 ft 318 kts 276°
2026-04-30 20:15 51.34015 -0.07783 7876 ft 308 kts 276°
2026-04-30 20:15 51.34329 -0.11092 7401 ft 299 kts 276°
2026-04-30 20:15 51.34591 -0.13863 7232 ft 286 kts 276°
2026-04-30 20:16 51.34724 -0.15608 6636 ft 297 kts 268°
2026-04-30 20:16 51.34546 -0.18791 6285 ft 267 kts 275°
2026-04-30 20:17 51.34746 -0.21848 6914 ft 292 kts 279°
2026-04-30 20:17 51.34958 -0.25230 6888 ft 304 kts 277°
2026-04-30 20:17 51.35157 -0.28473 6966 ft 287 kts 278°
2026-04-30 20:17 51.35336 -0.31562 7091 ft 283 kts 277°
2026-04-30 20:18 51.35501 -0.34726 7146 ft 284 kts 277°
2026-04-30 20:18 51.35667 -0.37886 7253 ft 286 kts 277°
2026-04-30 20:18 51.35834 -0.41054 7205 ft 285 kts 277°
2026-04-30 20:18 51.36000 -0.44205 7180 ft 284 kts 277°
2026-04-30 20:19 51.36166 -0.47367 7196 ft 285 kts 277°
2026-04-30 20:19 51.36326 -0.50531 7216 ft 285 kts 276°
2026-04-30 20:19 51.36482 -0.53697 7051 ft 286 kts 276°
2026-04-30 20:19 51.36635 -0.56849 6690 ft 282 kts 276°
2026-04-30 20:20 51.36792 -0.59895 6151 ft 265 kts 277°
2026-04-30 20:20 51.36934 -0.62830 5803 ft 264 kts 276°
2026-04-30 20:20 51.37080 -0.65780 5379 ft 267 kts 276°
2026-04-30 20:20 51.37225 -0.68712 5188 ft 260 kts 276°
2026-04-30 20:21 51.37366 -0.71547 5030 ft 251 kts 277°
2026-04-30 20:21 51.37514 -0.74292 4849 ft 244 kts 277°
2026-04-30 20:21 51.37682 -0.76965 4647 ft 238 kts 279°
2026-04-30 20:21 51.37842 -0.79579 4321 ft 236 kts 276°
2026-04-30 20:22 51.37964 -0.82174 4092 ft 229 kts 277°
2026-04-30 20:22 51.38077 -0.84673 3865 ft 222 kts 278°
2026-04-30 20:22 51.38497 -0.86991 3788 ft 211 kts 312°
2026-04-30 20:22 51.39580 -0.88412 3640 ft 203 kts 355°
2026-04-30 20:23 51.40961 -0.88992 3341 ft 208 kts
2026-04-30 20:23 51.42407 -0.89323 3557 ft 215 kts
2026-04-30 20:23 51.43895 -0.89725 3916 ft 218 kts
2026-04-30 20:23 51.45399 -0.90164 4015 ft 217 kts
2026-04-30 20:24 51.46793 -0.89864 3957 ft 197 kts 45°
2026-04-30 20:24 51.47861 -0.88532 3746 ft 191 kts 71°
2026-04-30 20:24 51.48365 -0.86720 3870 ft 175 kts 98°
2026-04-30 20:24 51.48354 -0.84832 3783 ft 172 kts 115°
2026-04-30 20:25 51.48000 -0.80927 3541 ft 175 kts 104°
2026-04-30 20:25 51.47857 -0.79001 3373 ft 173 kts 102°
2026-04-30 20:26 51.47695 -0.75219 3005 ft 160 kts 99°
2026-04-30 20:26 51.47649 -0.71808 2851 ft 152 kts 97°
2026-04-30 20:26 51.47648 -0.70100 2704 ft 151 kts 97°
2026-04-30 20:27 51.47661 -0.66743 2339 ft 149 kts 96°
2026-04-30 20:27 51.47678 -0.63448 1970 ft 146 kts 96°
2026-04-30 20:28 51.47695 -0.60206 1542 ft 146 kts 94°
2026-04-30 20:28 51.47711 -0.56920 1151 ft 144 kts 92°
2026-04-30 20:29 51.47725 -0.53913 797 ft 132 kts 90°
2026-04-30 20:30 51.47737 -0.51128 467 ft 130 kts 89°
2026-04-30 20:30 51.47754 -0.47100 87 ft 64 kts 90°
2026-04-30 20:31 51.47661 -0.46108 86 ft 17 kts 140°
2026-04-30 20:32 51.47593 -0.46220 89 ft 8 kts 270°